Time,TemperatureF,DewpointF,PressureIn,WindDirection,WindDirectionDegrees,WindSpeedMPH,WindSpeedGustMPH,Humidity,HourlyPrecipIn,Conditions,Clouds,dailyrainin,SoftwareType,DateUTC
2013-02-12 00:00:00,18.8,7.9,30.06,WNW,301,0.0,0.0,62,0.00,,,0.00,Wunderground v.1.15,2013-02-12 07:00:00,
2013-02-12 00:30:00,18.6,7.4,30.06,WNW,301,0.0,0.0,61,0.00,,,0.00,Wunderground v.1.15,2013-02-12 07:30:00,
2013-02-12 01:00:00,18.8,6.4,30.05,WNW,301,0.0,0.0,58,0.00,,,0.00,Wunderground v.1.15,2013-02-12 08:00:00,
2013-02-12 01:30:00,19.7,6.9,30.05,WNW,301,0.0,0.0,57,0.00,,,0.00,Wunderground v.1.15,2013-02-12 08:30:00,
2013-02-12 02:00:00,21.1,6.2,30.04,WNW,301,0.0,0.0,52,0.00,,,0.00,Wunderground v.1.15,2013-02-12 09:00:00,
2013-02-12 02:30:00,22.2,7.2,30.03,SSW,200,0.0,0.0,52,0.00,,,0.00,Wunderground v.1.15,2013-02-12 09:30:00,
2013-02-12 03:00:00,21.3,8.0,30.03,West,259,0.0,0.0,56,0.00,,,0.00,Wunderground v.1.15,2013-02-12 10:00:00,
2013-02-12 03:30:00,21.4,7.3,30.02,West,259,0.0,0.0,54,0.00,,,0.00,Wunderground v.1.15,2013-02-12 10:30:00,
2013-02-12 04:00:00,20.0,6.4,30.02,West,259,0.0,0.0,55,0.00,,,0.00,Wunderground v.1.15,2013-02-12 11:00:00,
2013-02-12 04:30:00,20.2,7.0,30.02,West,259,0.0,0.0,56,0.00,,,0.00,Wunderground v.1.15,2013-02-12 11:30:00,
2013-02-12 05:00:00,23.9,7.0,30.03,West,259,0.0,0.0,48,0.00,,,0.00,Wunderground v.1.15,2013-02-12 12:00:00,
2013-02-12 05:30:00,25.4,7.5,30.04,West,259,0.0,0.0,46,0.00,,,0.00,Wunderground v.1.15,2013-02-12 12:30:00,
2013-02-12 06:00:00,23.6,7.7,30.03,West,259,0.0,0.0,50,0.00,,,0.00,Wunderground v.1.15,2013-02-12 13:00:00,
2013-02-12 06:30:00,24.8,10.1,30.03,West,259,0.0,0.0,53,0.00,,,0.00,Wunderground v.1.15,2013-02-12 13:30:00,
2013-02-12 07:00:00,26.6,10.9,30.03,WSW,258,0.0,0.0,51,0.00,,,0.00,Wunderground v.1.15,2013-02-12 14:00:00,
2013-02-12 07:30:00,30.6,11.2,30.03,West,260,2.0,2.0,44,0.00,,,0.00,Wunderground v.1.15,2013-02-12 14:30:00,
2013-02-12 08:00:00,29.0,12.2,30.04,WNW,282,1.0,1.0,49,0.00,,,0.00,Wunderground v.1.15,2013-02-12 15:00:00,
2013-02-12 08:30:00,30.6,13.7,30.04,East,87,0.0,0.0,49,0.00,,,0.00,Wunderground v.1.15,2013-02-12 15:30:00,
2013-02-12 09:00:00,35.2,12.7,30.05,ENE,67,0.0,0.0,39,0.00,,,0.00,Wunderground v.1.15,2013-02-12 16:00:00,
2013-02-12 09:30:00,36.6,19.7,30.05,ESE,118,1.0,1.0,50,0.00,,,0.00,Wunderground v.1.15,2013-02-12 16:30:00,
2013-02-12 10:00:00,38.5,14.4,30.05,East,99,2.0,2.0,37,0.00,,,0.00,Wunderground v.1.15,2013-02-12 17:00:00,
2013-02-12 10:30:00,41.3,17.6,30.05,East,101,0.0,0.0,38,0.00,,,0.00,Wunderground v.1.15,2013-02-12 17:30:00,
2013-02-12 11:00:00,44.2,16.9,30.04,SW,218,0.0,0.0,33,0.00,,,0.00,Wunderground v.1.15,2013-02-12 18:00:00,
2013-02-12 11:30:00,43.6,19.6,30.03,NW,312,3.0,3.0,38,0.00,,,0.00,Wunderground v.1.15,2013-02-12 18:30:00,
2013-02-12 12:00:00,43.3,20.0,30.02,WNW,295,4.0,5.0,39,0.00,,,0.00,Wunderground v.1.15,2013-02-12 19:00:00,
2013-02-12 12:30:00,43.6,20.8,30.00,North,360,5.0,5.0,40,0.00,,,0.00,Wunderground v.1.15,2013-02-12 19:30:00,
2013-02-12 13:00:00,44.6,20.5,29.99,West,272,4.0,4.0,38,0.00,,,0.00,Wunderground v.1.15,2013-02-12 20:00:00,
2013-02-12 13:30:00,45.2,21.1,29.99,North,5,5.0,5.0,38,0.00,,,0.00,Wunderground v.1.15,2013-02-12 20:30:00,
2013-02-12 14:00:00,45.5,19.4,29.97,ENE,59,5.0,5.0,35,0.00,,,0.00,Wunderground v.1.15,2013-02-12 21:00:00,
2013-02-12 14:30:00,45.2,17.8,29.97,NW,307,4.0,6.0,33,0.00,,,0.00,Wunderground v.1.15,2013-02-12 21:30:00,
2013-02-12 15:00:00,45.8,18.3,29.97,NNW,348,3.0,5.0,33,0.00,,,0.00,Wunderground v.1.15,2013-02-12 22:00:00,
2013-02-12 15:30:00,43.8,19.2,29.96,NNE,29,3.0,3.0,37,0.00,,,0.00,Wunderground v.1.15,2013-02-12 22:30:00,
2013-02-12 16:00:00,41.2,18.1,29.96,North,356,5.0,5.0,39,0.00,,,0.00,Wunderground v.1.15,2013-02-12 23:00:00,
2013-02-12 16:30:00,40.5,18.0,29.96,North,360,3.0,7.0,40,0.00,,,0.00,Wunderground v.1.15,2013-02-12 23:30:00,
2013-02-12 17:00:00,39.5,17.7,29.97,NW,314,3.0,4.0,41,0.00,,,0.00,Wunderground v.1.15,2013-02-13 00:00:00,
2013-02-12 17:30:00,39.6,17.2,29.98,WNW,286,4.0,4.0,40,0.00,,,0.00,Wunderground v.1.15,2013-02-13 00:30:00,
2013-02-12 18:00:00,39.1,16.8,29.98,WNW,291,3.0,4.0,40,0.00,,,0.00,Wunderground v.1.15,2013-02-13 01:00:00,
2013-02-12 18:30:00,38.5,16.8,29.99,WNW,286,2.0,2.0,41,0.00,,,0.00,Wunderground v.1.15,2013-02-13 01:30:00,
2013-02-12 19:00:00,37.9,16.8,29.99,West,270,2.0,2.0,42,0.00,,,0.00,Wunderground v.1.15,2013-02-13 02:00:00,
2013-02-12 19:30:00,37.0,17.1,29.97,West,276,1.0,1.0,44,0.00,,,0.00,Wunderground v.1.15,2013-02-13 02:30:00,
2013-02-12 20:00:00,36.5,17.7,29.97,WNW,285,1.0,3.0,46,0.00,,,0.00,Wunderground v.1.15,2013-02-13 03:00:00,
2013-02-12 20:30:00,36.9,18.0,29.97,WNW,286,2.0,3.0,46,0.00,,,0.00,Wunderground v.1.15,2013-02-13 03:30:00,
2013-02-12 21:00:00,37.0,18.6,29.96,West,273,2.0,2.0,47,0.00,,,0.00,Wunderground v.1.15,2013-02-13 04:00:00,
2013-02-12 21:30:00,38.2,19.2,29.95,WNW,296,3.0,3.0,46,0.00,,,0.00,Wunderground v.1.15,2013-02-13 04:30:00,
2013-02-12 22:00:00,38.3,19.3,29.94,WNW,303,2.0,2.0,46,0.00,,,0.00,Wunderground v.1.15,2013-02-13 05:00:00,
2013-02-12 22:30:00,38.2,19.7,29.93,West,277,3.0,3.0,47,0.00,,,0.00,Wunderground v.1.15,2013-02-13 05:30:00,
2013-02-12 23:00:00,38.3,19.3,29.91,WSW,254,3.0,3.0,46,0.00,,,0.00,Wunderground v.1.15,2013-02-13 06:00:00,
2013-02-12 23:30:00,38.0,19.0,29.90,WNW,289,3.0,4.0,46,0.00,,,0.00,Wunderground v.1.15,2013-02-13 06:30:00,